K6LOT-13 Weather Reports


time (UTC)temp
F
wind
direction
speed
knots
gust
knots
rain 1hr
in
rain 24hr
in
rain mn
in
humidity
%
barometer
mb
20260507015348 59 156 0.0 0.0 0.00 0.00 0.00 76 1019.8
20260507015235 70 263 0.0 3.5 0.00 0.00 0.00 56 1017.2
20260506153454 59 178 0.0 0.0 0.00 0.00 0.00 77 1019.8
20260506152947 59 279 0.0 0.0 0.00 0.00 0.00 77 1019.9
20260506152437 59 245 0.0 0.0 0.00 0.00 0.00 77 1019.9
20260506151932 58 287 0.0 0.0 0.00 0.00 0.00 78 1019.8
20260506151425 58 292 0.0 0.0 0.00 0.00 0.00 78 1019.9
20260506150914 58 244 0.0 0.0 0.00 0.00 0.00 78 1019.9
20260506150408 58 97 0.0 0.0 0.00 0.00 0.00 78 1019.8
20260506145858 58 266 0.0 0.0 0.00 0.00 0.00 78 1019.8
20260506145352 57 45 0.0 0.0 0.00 0.00 0.00 78 1019.8
20260506144336 57 308 0.0 0.0 0.00 0.00 0.00 77 1019.9
20260506143829 57 315 0.0 0.0 0.00 0.00 0.00 77 1019.9
20260506143319 57 315 0.0 0.0 0.00 0.00 0.00 76 1019.8
20260506142813 57 68 0.0 0.0 0.00 0.00 0.00 76 1019.8
20260506142307 57 68 0.0 0.0 0.00 0.00 0.00 76 1019.8
20260506141757 57 68 0.0 0.0 0.00 0.00 0.00 76 1019.8
20260506141250 56 68 0.0 0.0 0.00 0.00 0.00 76 1019.8
20260506140740 56 68 0.0 0.0 0.00 0.00 0.00 75 1019.6
20260506140234 56 68 0.0 0.0 0.00 0.00 0.00 75 1019.6
20260506135728 56 68 0.0 0.0 0.00 0.00 0.00 75 1019.6
20260506135222 56 68 0.0 0.0 0.00 0.00 0.00 75 1019.5
20260506134711 56 68 0.0 0.0 0.00 0.00 0.00 75 1019.5
20260506134205 56 68 0.0 0.0 0.00 0.00 0.00 75 1019.5
20260506133655 56 68 0.0 0.0 0.00 0.00 0.00 75 1019.4
20260506133149 56 52 0.0 0.0 0.00 0.00 0.00 75 1019.4
20260506132643 56 68 0.0 0.0 0.00 0.00 0.00 75 1019.4
20260506132136 56 13 0.0 0.0 0.00 0.00 0.00 75 1019.4
20260506131700 56 113 0.0 0.0 0.00 0.00 0.00 75 1019.4
20260506131124 56 113 0.0 0.0 0.00 0.00 0.00 75 1019.3
20260506130619 56 113 0.0 0.0 0.00 0.00 0.00 75 1019.3
20260506125632 56 113 0.0 0.0 0.00 0.00 0.00 74 1019.1
20260506125056 56 113 0.0 0.0 0.00 0.00 0.00 74 1019.1
20260506124546 56 113 0.0 0.0 0.00 0.00 0.00 74 1019.1
20260506124040 56 113 0.0 0.0 0.00 0.00 0.00 74 1019.1
20260506123534 56 113 0.0 0.0 0.00 0.00 0.00 74 1019.0
20260506123028 56 113 0.0 0.0 0.00 0.00 0.00 74 1018.9
20260506122521 56 23 0.0 0.0 0.00 0.00 0.00 74 1018.9
20260506122045 56 23 0.0 0.0 0.00 0.00 0.00 74 1018.9
20260506121510 56 76 0.0 0.0 0.00 0.00 0.00 74 1018.8
20260506121004 56 142 0.0 0.0 0.00 0.00 0.00 74 1018.8
20260506120454 56 113 0.0 0.0 0.00 0.00 0.00 74 1018.8
20260506120017 57 113 0.0 0.0 0.00 0.00 0.00 73 1018.8
20260506115437 57 113 0.0 0.0 0.00 0.00 0.00 73 1018.7
20260506114931 57 113 0.0 0.0 0.00 0.00 0.00 73 1018.7
20260506114425 57 113 0.0 0.0 0.00 0.00 0.00 73 1018.7
20260506113944 57 113 0.0 0.0 0.00 0.00 0.00 73 1018.7
20260506113408 57 113 0.0 0.0 0.00 0.00 0.00 73 1018.6
20260506112902 57 104 0.0 0.0 0.00 0.00 0.00 74 1018.7
20260506112356 57 90 0.0 0.0 0.00 0.00 0.00 74 1018.6
20260506111850 57 90 0.0 0.0 0.00 0.00 0.00 74 1018.6
20260506111340 57 90 0.0 0.0 0.00 0.00 0.00 74 1018.6
20260506110829 57 110 0.0 0.0 0.00 0.00 0.00 74 1018.6
20260506110323 57 68 0.0 0.0 0.00 0.00 0.00 74 1018.5
20260506105813 57 52 0.0 0.0 0.00 0.00 0.00 73 1018.6
20260506105307 57 293 0.0 0.0 0.00 0.00 0.00 73 1018.6
20260506104801 57 95 0.0 0.0 0.00 0.00 0.00 73 1018.6
20260506104250 57 90 0.0 0.0 0.00 0.00 0.00 73 1018.7
20260506103730 57 45 0.0 0.0 0.00 0.00 0.00 73 1018.6
20260506103224 57 211 0.0 0.0 0.00 0.00 0.00 73 1018.6
20260506102719 57 337 0.0 0.0 0.00 0.00 0.00 73 1018.5
20260506102213 57 320 0.0 0.0 0.00 0.00 0.00 73 1018.6
20260506101707 57 68 0.0 0.0 0.00 0.00 0.00 73 1018.6
20260506101226 57 68 0.0 0.0 0.00 0.00 0.00 73 1018.6
20260506100646 57 68 0.0 0.0 0.00 0.00 0.00 72 1018.6
20260506100140 57 68 0.0 0.0 0.00 0.00 0.00 72 1018.6
20260506095634 57 68 0.0 0.0 0.00 0.00 0.00 73 1018.6
20260506095158 57 68 0.0 0.0 0.00 0.00 0.00 73 1018.7
20260506094617 58 68 0.0 0.0 0.00 0.00 0.00 72 1018.8
20260506094111 58 68 0.0 0.0 0.00 0.00 0.00 72 1018.8
20260506093605 58 68 0.0 0.0 0.00 0.00 0.00 72 1018.7
20260506093055 58 68 0.0 0.0 0.00 0.00 0.00 72 1018.7
20260506092548 58 68 0.0 0.0 0.00 0.00 0.00 72 1018.7
20260506092029 58 68 0.0 0.0 0.00 0.00 0.00 72 1018.7
20260506091014 58 68 0.0 0.0 0.00 0.00 0.00 73 1018.8
20260506090507 58 68 0.0 0.0 0.00 0.00 0.00 73 1018.9
20260506090001 58 68 0.0 0.0 0.00 0.00 0.00 73 1018.9
20260506085454 58 68 0.0 0.0 0.00 0.00 0.00 73 1018.9
20260506084948 58 68 0.0 0.0 0.00 0.00 0.00 73 1019.0
20260506084442 58 67 0.0 0.0 0.00 0.00 0.00 72 1019.0
20260506083937 58 25 0.0 0.0 0.00 0.00 0.00 72 1019.1
20260506083431 58 0 0.0 0.0 0.00 0.00 0.00 72 1019.0
20260506082924 58 0 0.0 0.0 0.00 0.00 0.00 72 1019.0
20260506082414 58 0 0.0 0.0 0.00 0.00 0.00 72 1019.0
20260506081908 58 0 0.0 0.0 0.00 0.00 0.00 72 1019.0
20260506081402 58 0 0.0 0.0 0.00 0.00 0.00 72 1019.1
20260506080852 58 0 0.0 0.0 0.00 0.00 0.00 72 1019.2
20260506080346 59 0 0.0 0.0 0.00 0.00 0.00 72 1019.2
20260506073301 59 0 0.0 0.0 0.00 0.00 0.00 72 1019.2
20260506072750 59 0 0.0 0.0 0.00 0.00 0.00 72 1019.2
20260506072244 59 0 0.0 0.0 0.00 0.00 0.00 72 1019.1
20260506071738 59 0 0.0 0.0 0.00 0.00 0.00 71 1019.0
20260506071228 59 0 0.0 0.0 0.00 0.00 0.00 71 1019.0
20260506070722 59 0 0.0 0.0 0.00 0.00 0.00 71 1018.9
20260506070211 59 0 0.0 0.0 0.00 0.00 0.00 71 1018.8
20260506062114 60 0 0.0 0.0 0.00 0.00 0.00 70 1018.4
20260506061604 60 0 0.0 0.0 0.00 0.00 0.00 70 1018.5
20260506061057 60 0 0.0 0.0 0.00 0.00 0.00 70 1018.5
20260506060547 60 0 0.0 0.0 0.00 0.00 0.00 70 1018.5
20260506050914 61 0 0.0 0.0 0.00 0.00 0.00 68 1018.1
20260506050408 61 0 0.0 0.0 0.00 0.00 0.00 67 1018.1
20260506044845 61 0 0.0 0.0 0.00 0.00 0.00 67 1017.9
20260506044335 61 0 0.0 0.0 0.00 0.00 0.00 66 1017.8
20260506043829 61 0 0.0 0.0 0.00 0.00 0.00 66 1017.7
20260506043354 61 0 0.0 0.0 0.00 0.00 0.00 66 1017.6
20260506042817 61 0 0.0 0.0 0.00 0.00 0.00 66 1017.5
20260506042307 61 0 0.0 0.0 0.00 0.00 0.00 65 1017.4
20260506041800 62 0 0.0 0.0 0.00 0.00 0.00 65 1017.4
20260506041241 62 0 0.0 0.0 0.00 0.00 0.00 65 1017.3
20260506040805 62 0 0.0 0.0 0.00 0.00 0.00 65 1017.3
20260506040229 62 0 0.0 0.0 0.00 0.00 0.00 65 1017.3
20260506035718 62 0 0.0 0.0 0.00 0.00 0.00 65 1017.3
20260506035212 62 0 0.0 0.0 0.00 0.00 0.00 65 1017.2
20260506034732 62 0 0.0 0.0 0.00 0.00 0.00 64 1017.1
20260506034156 62 0 0.0 0.0 0.00 0.00 0.00 64 1017.0
20260506033646 62 0 0.0 0.0 0.00 0.00 0.00 64 1017.0
20260506033140 62 293 0.0 0.0 0.00 0.00 0.00 63 1017.0
20260506032122 63 293 0.0 0.0 0.00 0.00 0.00 63 1016.8
20260506031647 63 325 0.0 0.0 0.00 0.00 0.00 62 1016.7
20260506031111 63 225 0.0 0.0 0.00 0.00 0.00 62 1016.6
20260506030601 63 294 0.0 0.0 0.00 0.00 0.00 62 1016.5
20260506030054 63 317 0.0 0.0 0.00 0.00 0.00 61 1016.5
20260506025544 63 242 0.0 0.0 0.00 0.00 0.00 61 1016.4
20260506025038 63 258 0.0 0.0 0.00 0.00 0.00 60 1016.2
20260506024532 64 264 0.0 0.0 0.00 0.00 0.00 60 1016.2
20260506024026 64 252 0.0 0.0 0.00 0.00 0.00 60 1016.2
20260506023519 64 227 0.0 0.0 0.00 0.00 0.00 60 1016.2
20260506022508 64 264 0.0 0.0 0.00 0.00 0.00 60 1016.0
20260506022002 64 225 0.0 0.0 0.00 0.00 0.00 60 1015.9
20260506021452 64 32 0.0 0.0 0.00 0.00 0.00 59 1015.8
20260506020945 64 158 0.0 0.0 0.00 0.00 0.00 59 1015.9
20260506020439 64 289 0.0 0.0 0.00 0.00 0.00 59 1015.8
20260506015929 64 81 0.0 0.0 0.00 0.00 0.00 59 1015.8